This demonstration page uses our WeatherBlox Daily Observations layout. Learn more.

Left ArrowRight Arrow

Hourly Observations for November 6, 2018

Temp ( °F °C ) Dew Point ( °F °C ) Humidity (%) Winds ( mph kmh ) Pressure ( in mb ) Visibility ( mi km ) Precip ( " mm )
12:53 am 00:53 Mostly Cloudy 20 -6.7 16 -8.9 85 85 N N/A 30.19 1022 10 16 N/A
1:06 am 01:06 Mostly Cloudy 19 -7 16 -9 86 86 N N/A 30.27 1025 10 16 N/A
1:37 am 01:37 Mostly Cloudy 20 -6.7 16 -8.9 85 85 N N/A 30.24 1024 10 16 N/A
1:51 am 01:51 Cloudy 19 -7 16 -9 86 86 N N/A 30.27 1025 10 16 N/A
1:53 am 01:53 Cloudy 20 -6.7 16 -8.9 85 85 N N/A 30.20 1023 10 16 N/A
2:02 am 02:02 Cloudy 19 -7 16 -9 86 86 N N/A 30.27 1025 10 16 N/A
2:20 am 02:20 Cloudy 19 -7 16 -9 86 86 NE 3 6 30.27 1025 10 16 N/A
2:53 am 02:53 Cloudy 20 -6.7 16 -8.9 85 85 ENE 5 7 30.21 1023 10 16 N/A
3:00 am 03:00 Cloudy 19 -7 16 -9 86 86 ENE 3 6 30.30 1026 10 16 N/A
3:53 am 03:53 Cloudy 20 -6.7 15 -9.4 81 81 N N/A 30.23 1024 10 16 N/A
4:07 am 04:07 Cloudy 20 -6.7 15 -9.4 81 81 N N/A 30.30 1026 10 16 N/A
4:31 am 04:31 Cloudy 20 -6.7 15 -9.4 81 81 NW 5 7 30.30 1026 10 16 N/A
4:53 am 04:53 Cloudy 20 -6.7 14 -10 78 78 NNW 6 9 30.24 1024 10 16 N/A
5:53 am 05:53 Cloudy 19 -7.2 12 -11.1 74 74 NW 8 13 30.27 1025 10 16 N/A
6:14 am 06:14 Cloudy 19 -7 12 -11 73 73 NW 6 9 30.33 1027 10 16 N/A
6:53 am 06:53 Cloudy 18 -7.8 12 -11.1 77 77 WNW 9 15 30.29 1026 10 16 N/A
7:53 am 07:53 Mostly Cloudy 17 -8.3 11 -11.7 77 77 NW 8 13 30.32 1027 10 16 N/A
8:53 am 08:53 Sunny 19 -7.2 11 -11.7 71 71 NW 6 9 30.33 1027 10 16 N/A
9:53 am 09:53 Mostly Sunny 20 -6.7 11 -11.7 68 68 NW 8 13 30.33 1027 10 16 N/A
10:53 am 10:53 Sunny 21 -6.1 11 -11.7 65 65 WNW 5 7 30.35 1028 10 16 N/A
11:53 am 11:53 Sunny 23 -5 12 -11.1 63 63 WNW 5 7 30.35 1028 10 16 N/A
12:53 pm 12:53 Sunny 24 -4.4 11 -11.7 57 57 VRB 5 7 30.34 1027 10 16 N/A
1:53 pm 13:53 Sunny 27 -2.8 10 -12.2 49 49 W 5 7 30.34 1027 10 16 N/A
2:53 pm 14:53 Sunny 26 -3.3 11 -11.7 53 53 WSW 5 7 30.34 1027 10 16 N/A
3:53 pm 15:53 Mostly Sunny 23 -5 17 -8.3 78 78 SSW 8 13 30.35 1028 10 16 N/A
4:53 pm 16:53 Clear 21 -6.1 16 -8.9 81 81 S 5 7 30.36 1028 10 16 N/A
5:53 pm 17:53 Mostly Cloudy 20 -6.7 16 -8.9 85 85 S 6 9 30.37 1028 10 16 N/A
6:53 pm 18:53 Cloudy 20 -6.7 15 -9.4 81 81 N N/A 30.38 1029 10 16 N/A
7:53 pm 19:53 Mostly Cloudy 19 -7.2 16 -8.9 88 88 W 6 9 30.39 1029 10 16 N/A
8:53 pm 20:53 Mostly Cloudy 19 -7.2 15 -9.4 84 84 W 3 6 30.40 1029 10 16 N/A
9:53 pm 21:53 Partly Cloudy 20 -6.7 14 -10 78 78 N N/A 30.40 1029 10 16 N/A
10:53 pm 22:53 Cloudy 20 -6.7 14 -10 78 78 WNW 6 9 30.40 1029 10 16 N/A
11:53 pm 23:53 Cloudy 19 -7.2 14 -10 81 81 NW 8 13 30.40 1030 10 16 N/A

Powered by AerisWeather